Weather in Yangiyo'l

Uzbekistan     41°06′47″N   69°03′17″E
temp.,
°C
wind,
m/s
gust,
m/s
humid.,
%
clouds,
%
prec.,
mm/h
press.,
hPa
HPBL,
m
14 may, fri
fri1423:00+18nne22470 0.0 101124
02:00+17ssw34480 0.0 101260
05:00+14sse47450 0.0 1012121
08:00+19s45330 0.0 1014398
11:00+26ssw21230 0.0 1013800
14:00+29nnw22210 0.0 10121605
17:00+30nnw55220 0.0 10102204
20:00+22n610410 0.0 1010214
15 may, sat
sat1523:00+18nnw22450 0.0 101026
02:00+16s35510 0.0 100989
05:00+15sse610540 0.0 1010219
08:00+19s68410 0.0 1012597
11:00+25ssw45270 0.0 10111043
14:00+28sw22200 0.0 10101473
17:00+29n11180 0.0 10081712
20:00+23wnw22270 0.0 100913
16 may, sun
sun1623:00+20nne22480 0.0 100918
02:00+18se11490 0.0 100911
05:00+16ssw22550 0.0 101018
08:00+21s33430 0.0 1011323
11:00+27sw22270 0.0 1011876
14:00+31wnw22200 0.0 10091659
17:00+31nw22160 0.0 10082066
20:00+25wnw22240 0.0 100911
17 may, mon
mon1723:00+21ese33380 0.0 100923
02:00+20ese33370 0.0 100917
05:00+19ese22360 0.0 101012
08:00+24sse23320 0.0 1011272
11:00+31ssw22220 0.0 10101060
14:00+34nw13140 0.0 10083290
17:00+34nnw33130 0.0 10073049
20:00+27nne33211 0.0 100717
18 may, tue
tue1823:00+24ene462367 0.0 100765
02:00+23ene45210 0.0 100756
05:00+21ese22220 0.0 100711
08:00+27ssw342421 0.0 1008280
11:00+33sw11185 0.0 10071113
14:00+36nne14133 0.0 10064031
17:00+35wnw341338 0.0 10054249
20:00+26s5133264 0.0 1007317